Regional Weather Roundup
Issued by NWS

Home | Current Version | Previous Version | Text Only | Print | Product List | Glossary On
Versions: 1 2 3 4 5 6 7 8 9 10 11 12 13 14 15 16 17 18 19 20 21 22 23 24 25 26 27 28 29 30 31 32 33 34 35 36 37 38 39 40 41 42 43 44 45 46 47 48 49 50
000
ASUS43 KLSX 212357
RWRMO

WEATHER SUMMARY FOR MISSOURI
NATIONAL WEATHER SERVICE SPRINGFIELD MO
600 PM CST SAT JAN 21 2017

NOTE: "FAIR" INDICATES FEW OR NO CLOUDS BELOW 12,000 FEET WITH NO
       SIGNIFICANT WEATHER AND/OR OBSTRUCTIONS TO VISIBILITY.
       CURRENT SKY AND/OR WEATHER CONDITIONS ARE NOT AVAILABLE FOR
       CHILLICOTHE AND FARMINGTON.

MOZ001>031-035>038-043-044-053-054-220100-
...NORTHERN AND WESTERN MISSOURI...

CITY           SKY/WX    TMP DP  RH WIND       PRES   REMARKS
KANSAS CTY INT CLOUDY    51  39  63 E6        29.50R
6HR MIN TEMP:  11; 6HR MAX TEMP: 126;

LEE`S SUMMIT   LGT RAIN  50  43  77 MISG      29.51R
6HR MIN TEMP:  45; 6HR MAX TEMP:  56; 6HR PCP: TRACE;

ST JOSEPH      PTCLDY    45  40  82 NE3       29.51R
6HR MIN TEMP:  43; 6HR MAX TEMP:  53;

CHILLICOTHE      N/A     42  40  92 CALM      29.55R
6HR MIN TEMP:  42; 6HR MAX TEMP:  51;


$$
MOZ066>068-077>081-088>096-101>105-220100-
...SOUTHWEST MISSOURI...

CITY           SKY/WX    TMP DP  RH WIND       PRES   REMARKS
SPRINGFIELD    CLOUDY    59  41  51 SE3       29.48S
6HR MIN TEMP:  57; 6HR MAX TEMP:  65;

JOPLIN         LGT RAIN  59  44  57 S6        29.47S
6HR MIN TEMP:  56; 6HR MAX TEMP:  62; 6HR PCP: TRACE;

BRANSON        CLOUDY    61  39  44 S5        29.50R

$$
MOZ032>034-039>042-045>050-055>058-069>072-220100-
...CENTRAL MISSOURI...

CITY           SKY/WX    TMP DP  RH WIND       PRES   REMARKS
COLUMBIA       NOT AVBL
JEFFERSON CITY CLOUDY    56  39  53 CALM      29.52R
6HR MIN TEMP:  56; 6HR MAX TEMP:  64;

ROLLA          MOCLDY    53  41  63 N5        29.51R
6HR MIN TEMP:  53; 6HR MAX TEMP:  66;

SEDALIA        PTCLDY    53  42  66 N5        29.53S
6HR MIN TEMP:  53; 6HR MAX TEMP:  60; 6HR PCP: TRACE;

WARRENSBURG    LGT RAIN  52  43  71 E3        29.51S

$$
MOZ051-052-059>065-220100-
...EAST CENTRAL MISSOURI...

CITY           SKY/WX    TMP DP  RH WIND       PRES   REMARKS
ST LOUIS INTL  MOCLDY    60  39  45 CALM      29.53R
6HR MIN TEMP:  60; 6HR MAX TEMP:  72;


$$
MOZ072>076-082>087-097>100-106>115-220100-
...SOUTH CENTRAL AND SOUTHEAST MISSOURI...

CITY           SKY/WX    TMP DP  RH WIND       PRES   REMARKS
CAPE GIRARDEAU NOT AVBL
POPLAR BLUFF   PTCLDY    60  57  89 S6        29.54S
6HR MIN TEMP:  60; 6HR MAX TEMP:  68;

WEST PLAINS    CLOUDY    59  44  57 CALM      29.54R
6HR MIN TEMP:  59; 6HR MAX TEMP:  68;


$$



USA.gov is the U.S. government's official web portal to all federal, state and local government web resources and services.